Regional Weather Roundup
Issued by NWS

Home | Current Version | Previous Version | Graphics & Text | Print | Product List | Glossary On
Versions: 1 2 3 4 5 6 7 8 9 10 11 12 13 14 15 16 17 18 19 20 21 22 23 24 25 26 27 28 29 30 31 32 33 34 35 36 37 38 39 40 41 42 43 44 45 46 47 48 49 50
000
ASUS43 KIND 041159
RWRIN

WEATHER ROUNDUP FOR INDIANA
NATIONAL WEATHER SERVICE INDIANAPOLIS IN
800 AM EDT FRI SEP 04 2015

NOTE: "FAIR" INDICATES FEW OR NO CLOUDS BELOW 12,000 FEET WITH NO
SIGNIFICANT WEATHER AND/OR OBSTRUCTIONS TO VISIBILITY.

* - STATION DOES NOT REPORT WEATHER SUCH AS PRECIPITATION OR FOG.

+ - STATION NOT QUALITY CONTROLLED BY THE NATIONAL WEATHER SERVICE.
    USE DATA WITH CAUTION...ESPECIALLY DEWPOINT AND RELATIVE
    HUMIDITY OBSERVATIONS.

INZ001>003-010>013-019-020-041300-
NORTHWEST INDIANA

CITY           SKY/WX    TMP DP  RH WIND       PRES   REMARKS
GARY /AIRPORT/ MOCLDY    68  66  94 CALM      30.01R

$$

LMZ046-743>745-041300-
SOUTHERN LAKE MICHIGAN

STATION/POSITION TIME  TEMP    WIND        PRES    WAVE
                       AIR SEA DIR/SP/G            HT
                 (UTC) (F)     (DEG/KT/KT) (MB)    (FT)
BURNS HARBOR     1100   72      40/  5/  6 1015.9R
MICHIGAN CITY    1100   70      10/  6/  7   N/A
5NW MICH CITY    1100   71 73   40/  4/  6   N/A     2

$$

INZ004-005-014>016-021>024-041300-
NORTH CENTRAL INDIANA

CITY           SKY/WX    TMP DP  RH WIND       PRES   REMARKS
ELKHART        CLOUDY    68  66  94 N3        30.00R
GOSHEN         CLOUDY    69  67  93 N5        30.00R FOG
6HR MIN TEMP:  67; 6HR MAX TEMP:  71;

SOUTH BEND     CLOUDY    68  66  93 N3        30.00R
6HR MIN TEMP:  66; 6HR MAX TEMP:  68;


$$

INZ006>009-017-018-025>027-041300-
NORTHEAST INDIANA

CITY           SKY/WX    TMP DP  RH WIND       PRES   REMARKS
ANGOLA *+      CLOUDY    70  63  78 NW5       29.99S VSB 1/4
FORT WAYNE     MOCLDY    69  67  93 S3        30.00S
6HR MIN TEMP:  67; 6HR MAX TEMP:  72;


$$

INZ028-029-035-036-043>045-051>053-041300-
WEST CENTRAL INDIANA

CITY           SKY/WX    TMP DP  RH WIND       PRES   REMARKS
CRAWFORDSVL +  PTCLDY    64  64 100 CALM      30.03R FOG
6HR MIN TEMP:  62; 6HR MAX TEMP:  66;

GREENCASTLE +  CLEAR     66  63  88 CALM      30.04R FOG
LAFAYETTE      PTCLDY    66  66 100 CALM      30.00R FOG
6HR MIN TEMP:  64; 6HR MAX TEMP:  71;

TERRE HAUTE    CLEAR     67  65  93 CALM      30.02R
6HR MIN TEMP:  65; 6HR MAX TEMP:  69;


$$

INZ030>032-037>040-046>048-054>057-064-065-041300-
CENTRAL INDIANA

CITY           SKY/WX    TMP DP  RH WIND       PRES   REMARKS
GREENWOOD *+   CLEAR     68  64  88 S3        30.03R
INDIANAPOLIS   MOCLDY    71  66  84 W5        30.02R
6HR MIN TEMP:  69; 6HR MAX TEMP:  74;

-EAGLE CREEK   MOCLDY    71  67  87 CALM      30.02R
6HR MIN TEMP:  69; 6HR MAX TEMP:  75;

KOKOMO *+      CLEAR     70  64  83 CALM      30.01R
6HR MIN TEMP:  68; 6HR MAX TEMP:  73;

MT COMFORT *+  CLEAR     68 N/A N/A CALM      30.03R
SHELBYVILLE    CLEAR     72  67  84 CALM      30.02R HAZE
6HR MIN TEMP:  68; 6HR MAX TEMP:  72;


$$

INZ033-034-041-042-049-050-058-059-041300-
EAST CENTRAL INDIANA

CITY           SKY/WX    TMP DP  RH WIND       PRES   REMARKS
MUNCIE         CLEAR     70  66  87 SW5       30.02R
6HR MIN TEMP:  70; 6HR MAX TEMP:  73;


$$

INZ060-061-067>069-081>083-085>088-041300-
SOUTHWEST INDIANA

CITY           SKY/WX    TMP DP  RH WIND       PRES   REMARKS
EVANSVILLE     CLEAR     69  67  93 CALM      30.03R FOG
6HR MIN TEMP:  69; 6HR MAX TEMP:  74;

HUNTINGBURG *+ PTCLDY    66  64  94 CALM      30.04R
6HR MIN TEMP:  66; 6HR MAX TEMP:  70;


$$

INZ062-063-066-070>080-084-089>092-041300-
SOUTH CENTRAL AND SOUTHEAST INDIANA

CITY           SKY/WX    TMP DP  RH WIND       PRES   REMARKS
BLOOMINGTON    CLEAR     67  65  93 CALM      30.04R
6HR MIN TEMP:  66; 6HR MAX TEMP:  69;

MADISON *+       N/A     66  64  94 CALM      30.06R VSB 1/2
SEYMOUR +      FOG       64  64 100 CALM      30.03R VSB 1

$$



USA.gov is the U.S. government's official web portal to all federal, state and local government web resources and services.